| time (UTC) | temp C | wind direction | speed KPH | gust KPH | rain 1hr cm | rain 24hr cm | rain mn cm | humidity % | barometer mb |
| 20260503232700 | 11 | 207 | 17.7 | 29.0 | 0.00 | 0.00 | 0.00 | 67 | 1014.5 |
| 20260503232157 | 11 | 214 | 19.3 | 25.7 | 0.00 | 0.00 | 0.00 | 67 | 1014.8 |
| 20260503231655 | 11 | 245 | 22.5 | 33.8 | 0.00 | 0.00 | 0.00 | 66 | 1014.7 |
| 20260503231151 | 12 | 250 | 22.5 | 33.8 | 0.00 | 0.00 | 0.00 | 66 | 1014.7 |
| 20260503230648 | 12 | 239 | 24.1 | 37.0 | 0.00 | 0.00 | 0.00 | 65 | 1014.4 |
| 20260503230145 | 13 | 238 | 27.4 | 38.6 | 0.00 | 0.00 | 0.00 | 62 | 1014.4 |
| 20260503225642 | 13 | 247 | 25.7 | 33.8 | 0.00 | 0.00 | 0.00 | 61 | 1014.4 |
| 20260503225142 | 13 | 254 | 22.5 | 33.8 | 0.00 | 0.00 | 0.00 | 61 | 1014.3 |
| 20260503224640 | 14 | 258 | 29.0 | 35.4 | 0.00 | 0.00 | 0.00 | 59 | 1014.3 |
| 20260503224138 | 15 | 259 | 27.4 | 37.0 | 0.00 | 0.00 | 0.00 | 57 | 1014.2 |
| 20260503223636 | 15 | 241 | 22.5 | 33.8 | 0.00 | 0.00 | 0.00 | 58 | 1014.1 |
| 20260503223131 | 15 | 237 | 30.6 | 40.2 | 0.00 | 0.00 | 0.00 | 56 | 1014.2 |
| 20260503222629 | 15 | 238 | 30.6 | 38.6 | 0.00 | 0.00 | 0.00 | 53 | 1014.1 |
| 20260503222126 | 16 | 220 | 19.3 | 27.4 | 0.00 | 0.00 | 0.00 | 49 | 1014.0 |
| 20260503221625 | 16 | 244 | 19.3 | 27.4 | 0.00 | 0.00 | 0.00 | 46 | 1014.0 |
| 20260503221122 | 16 | 238 | 22.5 | 33.8 | 0.00 | 0.00 | 0.00 | 46 | 1014.1 |
| 20260503220619 | 16 | 252 | 22.5 | 33.8 | 0.00 | 0.00 | 0.00 | 45 | 1014.1 |
| 20260503220115 | 15 | 246 | 24.1 | 32.2 | 0.00 | 0.00 | 0.00 | 46 | 1014.0 |
| 20260503215612 | 15 | 248 | 27.4 | 32.2 | 0.00 | 0.00 | 0.00 | 44 | 1013.9 |
| 20260503215109 | 16 | 223 | 24.1 | 33.8 | 0.00 | 0.00 | 0.00 | 45 | 1014.2 |
| 20260503214608 | 16 | 228 | 22.5 | 25.7 | 0.00 | 0.00 | 0.00 | 45 | 1014.0 |
| 20260503214103 | 16 | 241 | 22.5 | 33.8 | 0.00 | 0.00 | 0.00 | 45 | 1014.2 |
| 20260503213602 | 16 | 222 | 24.1 | 43.5 | 0.00 | 0.00 | 0.00 | 45 | 1014.1 |
| 20260503213058 | 15 | 212 | 27.4 | 32.2 | 0.00 | 0.00 | 0.00 | 45 | 1014.2 |
| 20260503212556 | 16 | 230 | 20.9 | 29.0 | 0.00 | 0.00 | 0.00 | 46 | 1014.2 |
| 20260503212053 | 15 | 237 | 20.9 | 33.8 | 0.00 | 0.00 | 0.00 | 44 | 1014.1 |
| 20260503211550 | 15 | 212 | 20.9 | 35.4 | 0.00 | 0.00 | 0.00 | 48 | 1014.3 |
| 20260503211045 | 15 | 204 | 20.9 | 35.4 | 0.00 | 0.00 | 0.00 | 46 | 1014.3 |
| 20260503210543 | 16 | 225 | 17.7 | 24.1 | 0.00 | 0.00 | 0.00 | 46 | 1014.1 |
| 20260503210038 | 16 | 228 | 27.4 | 33.8 | 0.00 | 0.00 | 0.00 | 43 | 1014.4 |
| 20260503205535 | 16 | 243 | 22.5 | 37.0 | 0.00 | 0.00 | 0.00 | 45 | 1014.1 |
| 20260503205032 | 16 | 214 | 33.8 | 40.2 | 0.00 | 0.00 | 0.00 | 42 | 1014.3 |
| 20260503204529 | 16 | 248 | 25.7 | 37.0 | 0.00 | 0.00 | 0.00 | 45 | 1014.4 |
| 20260503204026 | 16 | 215 | 27.4 | 29.0 | 0.00 | 0.00 | 0.00 | 43 | 1014.4 |
| 20260503203523 | 16 | 229 | 32.2 | 38.6 | 0.00 | 0.00 | 0.00 | 43 | 1014.6 |
| 20260503203020 | 16 | 222 | 27.4 | 40.2 | 0.00 | 0.00 | 0.00 | 44 | 1014.5 |
| 20260503202518 | 16 | 229 | 29.0 | 38.6 | 0.00 | 0.00 | 0.00 | 44 | 1014.6 |
| 20260503202015 | 16 | 218 | 22.5 | 35.4 | 0.00 | 0.00 | 0.00 | 44 | 1014.5 |
| 20260503201514 | 16 | 243 | 32.2 | 40.2 | 0.00 | 0.00 | 0.00 | 42 | 1014.7 |
| 20260503201010 | 16 | 230 | 29.0 | 35.4 | 0.00 | 0.00 | 0.00 | 43 | 1014.7 |
| 20260503200506 | 16 | 231 | 22.5 | 32.2 | 0.00 | 0.00 | 0.00 | 43 | 1014.6 |
| 20260503200003 | 16 | 230 | 22.5 | 32.2 | 0.00 | 0.00 | 0.00 | 43 | 1014.8 |
| 20260503195500 | 16 | 236 | 17.7 | 29.0 | 0.00 | 0.00 | 0.00 | 45 | 1014.7 |
| 20260503194957 | 16 | 221 | 25.7 | 37.0 | 0.00 | 0.00 | 0.00 | 44 | 1014.8 |
| 20260503194455 | 16 | 209 | 27.4 | 35.4 | 0.00 | 0.00 | 0.00 | 44 | 1014.8 |
| 20260503193949 | 16 | 233 | 25.7 | 37.0 | 0.00 | 0.00 | 0.00 | 44 | 1015.0 |
| 20260503193445 | 16 | 234 | 22.5 | 35.4 | 0.00 | 0.00 | 0.00 | 46 | 1015.1 |
| 20260503192941 | 16 | 237 | 29.0 | 38.6 | 0.00 | 0.00 | 0.00 | 44 | 1014.8 |
| 20260503192437 | 16 | 235 | 25.7 | 29.0 | 0.00 | 0.00 | 0.00 | 44 | 1015.2 |
| 20260503191933 | 16 | 239 | 22.5 | 32.2 | 0.00 | 0.00 | 0.00 | 45 | 1015.2 |
| 20260503191431 | 16 | 239 | 22.5 | 40.2 | 0.00 | 0.00 | 0.00 | 48 | 1015.4 |
| 20260503190927 | 16 | 217 | 27.4 | 33.8 | 0.00 | 0.00 | 0.00 | 47 | 1015.5 |
| 20260503190425 | 16 | 241 | 22.5 | 29.0 | 0.00 | 0.00 | 0.00 | 44 | 1015.4 |
| 20260503185921 | 16 | 220 | 30.6 | 35.4 | 0.00 | 0.00 | 0.00 | 45 | 1015.5 |
| 20260503185418 | 16 | 227 | 29.0 | 35.4 | 0.00 | 0.00 | 0.00 | 46 | 1015.5 |
| 20260503184917 | 16 | 211 | 29.0 | 35.4 | 0.00 | 0.00 | 0.00 | 45 | 1015.8 |
| 20260503184414 | 16 | 238 | 20.9 | 32.2 | 0.00 | 0.00 | 0.00 | 48 | 1016.0 |
| 20260503183910 | 16 | 225 | 30.6 | 37.0 | 0.00 | 0.00 | 0.00 | 44 | 1015.9 |
| 20260503183407 | 16 | 211 | 19.3 | 29.0 | 0.00 | 0.00 | 0.00 | 42 | 1015.9 |
| 20260503182904 | 16 | 232 | 20.9 | 35.4 | 0.00 | 0.00 | 0.00 | 48 | 1016.0 |
| 20260503182403 | 16 | 241 | 27.4 | 29.0 | 0.00 | 0.00 | 0.00 | 46 | 1016.2 |
| 20260503181859 | 16 | 255 | 20.9 | 29.0 | 0.00 | 0.00 | 0.00 | 46 | 1016.0 |
| 20260503181356 | 15 | 197 | 22.5 | 27.4 | 0.00 | 0.00 | 0.00 | 46 | 1016.3 |
| 20260503180853 | 15 | 244 | 22.5 | 32.2 | 0.00 | 0.00 | 0.00 | 46 | 1016.2 |
| 20260503180351 | 15 | 234 | 22.5 | 33.8 | 0.00 | 0.00 | 0.00 | 44 | 1016.4 |
| 20260503175847 | 16 | 246 | 24.1 | 35.4 | 0.00 | 0.00 | 0.00 | 46 | 1016.4 |
| 20260503175345 | 16 | 204 | 22.5 | 40.2 | 0.00 | 0.00 | 0.00 | 47 | 1016.3 |
| 20260503174840 | 15 | 230 | 20.9 | 35.4 | 0.00 | 0.00 | 0.00 | 47 | 1016.5 |
| 20260503174339 | 16 | 231 | 20.9 | 29.0 | 0.00 | 0.00 | 0.00 | 46 | 1016.5 |
| 20260503173834 | 16 | 248 | 22.5 | 35.4 | 0.00 | 0.00 | 0.00 | 47 | 1016.7 |
| 20260503173331 | 16 | 246 | 30.6 | 35.4 | 0.00 | 0.00 | 0.00 | 42 | 1016.6 |
| 20260503172827 | 16 | 192 | 19.3 | 29.0 | 0.00 | 0.00 | 0.00 | 46 | 1016.6 |
| 20260503172325 | 16 | 242 | 19.3 | 33.8 | 0.00 | 0.00 | 0.00 | 49 | 1016.8 |
| 20260503171821 | 15 | 252 | 27.4 | 37.0 | 0.00 | 0.00 | 0.00 | 46 | 1016.9 |
| 20260503171318 | 15 | 224 | 24.1 | 33.8 | 0.00 | 0.00 | 0.00 | 48 | 1016.8 |
| 20260503170815 | 16 | 244 | 22.5 | 29.0 | 0.00 | 0.00 | 0.00 | 49 | 1016.9 |
| 20260503170312 | 15 | 233 | 24.1 | 29.0 | 0.00 | 0.00 | 0.00 | 47 | 1016.9 |
| 20260503150704 | 12 | 242 | 19.3 | 22.5 | 0.00 | 0.00 | 0.00 | 56 | 1018.1 |
| 20260503150200 | 12 | 231 | 14.5 | 20.9 | 0.00 | 0.00 | 0.00 | 59 | 1018.2 |
| 20260503140124 | 10 | 231 | 20.9 | 33.8 | 0.00 | 0.00 | 0.00 | 62 | 1018.6 |
| 20260503131054 | 8 | 235 | 16.1 | 20.9 | 0.00 | 0.00 | 0.00 | 64 | 1018.8 |
| 20260503130551 | 8 | 231 | 14.5 | 22.5 | 0.00 | 0.00 | 0.00 | 66 | 1018.7 |
| 20260503110442 | 1 | 213 | 8.0 | 9.7 | 0.00 | 0.00 | 0.00 | 83 | 1018.3 |
| 20260503090333 | 0 | 216 | 3.2 | 3.2 | 0.00 | 0.00 | 0.00 | 85 | 1018.8 |
| 20260503081300 | 0 | 214 | 3.2 | 3.2 | 0.00 | 0.00 | 0.00 | 87 | 1018.9 |
| 20260503080756 | 0 | 217 | 0.0 | 1.6 | 0.00 | 0.00 | 0.00 | 86 | 1018.9 |
| 20260503080254 | 0 | 217 | 1.6 | 3.2 | 0.00 | 0.00 | 0.00 | 86 | 1018.8 |
| 20260503072730 | 0 | 214 | 1.6 | 1.6 | 0.00 | 0.00 | 0.00 | 85 | 1019.0 |
| 20260503072226 | 1 | 217 | 1.6 | 1.6 | 0.00 | 0.00 | 0.00 | 85 | 1018.9 |
| 20260503071723 | 1 | 215 | 1.6 | 3.2 | 0.00 | 0.00 | 0.00 | 85 | 1019.0 |
| 20260503071220 | 1 | 215 | 1.6 | 1.6 | 0.00 | 0.00 | 0.00 | 85 | 1019.1 |
| 20260503070717 | 1 | 214 | 1.6 | 1.6 | 0.00 | 0.00 | 0.00 | 84 | 1019.0 |
| 20260503070215 | 1 | 211 | 1.6 | 1.6 | 0.00 | 0.00 | 0.00 | 84 | 1019.1 |
| 20260503060139 | 1 | 217 | 1.6 | 1.6 | 0.00 | 0.00 | 0.00 | 83 | 1019.3 |
| 20260503054626 | 1 | 214 | 1.6 | 3.2 | 0.00 | 0.00 | 0.00 | 82 | 1019.4 |
| 20260503054123 | 1 | 216 | 1.6 | 1.6 | 0.00 | 0.00 | 0.00 | 83 | 1019.3 |
| 20260503053621 | 1 | 216 | 1.6 | 1.6 | 0.00 | 0.00 | 0.00 | 83 | 1019.3 |
| 20260503053120 | 1 | 212 | 1.6 | 3.2 | 0.00 | 0.00 | 0.00 | 83 | 1019.3 |
| 20260503052616 | 1 | 209 | 1.6 | 3.2 | 0.00 | 0.00 | 0.00 | 82 | 1019.5 |
| 20260503052112 | 2 | 209 | 1.6 | 1.6 | 0.00 | 0.00 | 0.00 | 81 | 1019.5 |
| 20260503051608 | 2 | 213 | 1.6 | 1.6 | 0.00 | 0.00 | 0.00 | 81 | 1019.5 |
| 20260503051106 | 2 | 215 | 1.6 | 1.6 | 0.00 | 0.00 | 0.00 | 81 | 1019.6 |
| 20260503050602 | 2 | 213 | 1.6 | 1.6 | 0.00 | 0.00 | 0.00 | 81 | 1019.6 |
| 20260503050059 | 2 | 212 | 1.6 | 3.2 | 0.00 | 0.00 | 0.00 | 81 | 1019.4 |
| 20260503045556 | 2 | 212 | 3.2 | 3.2 | 0.00 | 0.00 | 0.00 | 81 | 1019.5 |
| 20260503045053 | 2 | 217 | 3.2 | 3.2 | 0.00 | 0.00 | 0.00 | 80 | 1019.7 |
| 20260503044549 | 2 | 213 | 3.2 | 3.2 | 0.00 | 0.00 | 0.00 | 81 | 1019.5 |
| 20260503044047 | 2 | 213 | 1.6 | 3.2 | 0.00 | 0.00 | 0.00 | 81 | 1019.6 |
| 20260503043543 | 2 | 214 | 1.6 | 3.2 | 0.00 | 0.00 | 0.00 | 83 | 1019.4 |
| 20260503043040 | 2 | 214 | 1.6 | 1.6 | 0.00 | 0.00 | 0.00 | 83 | 1019.5 |
| 20260503042537 | 2 | 218 | 1.6 | 1.6 | 0.00 | 0.00 | 0.00 | 81 | 1019.6 |
| 20260503042033 | 2 | 215 | 1.6 | 3.2 | 0.00 | 0.00 | 0.00 | 80 | 1019.5 |
| 20260503041530 | 2 | 214 | 0.0 | 1.6 | 0.00 | 0.00 | 0.00 | 82 | 1019.5 |
| 20260503041028 | 2 | 217 | 1.6 | 1.6 | 0.00 | 0.00 | 0.00 | 82 | 1019.5 |
| 20260503040525 | 2 | 211 | 1.6 | 3.2 | 0.00 | 0.00 | 0.00 | 80 | 1019.6 |
| 20260503040022 | 3 | 214 | 3.2 | 3.2 | 0.00 | 0.00 | 0.00 | 77 | 1019.6 |
| 20260503035519 | 3 | 211 | 4.8 | 4.8 | 0.00 | 0.00 | 0.00 | 76 | 1019.7 |
| 20260503035017 | 3 | 207 | 4.8 | 4.8 | 0.00 | 0.00 | 0.00 | 77 | 1019.7 |
| 20260503034514 | 3 | 209 | 3.2 | 3.2 | 0.00 | 0.00 | 0.00 | 78 | 1019.7 |
| 20260503034010 | 4 | 210 | 3.2 | 3.2 | 0.00 | 0.00 | 0.00 | 76 | 1019.7 |
| 20260503033508 | 5 | 210 | 4.8 | 4.8 | 0.00 | 0.00 | 0.00 | 73 | 1019.6 |
| 20260503033006 | 5 | 208 | 3.2 | 3.2 | 0.00 | 0.00 | 0.00 | 74 | 1019.7 |
| 20260503032504 | 5 | 202 | 1.6 | 3.2 | 0.00 | 0.00 | 0.00 | 72 | 1019.7 |
| 20260503032002 | 5 | 204 | 1.6 | 1.6 | 0.00 | 0.00 | 0.00 | 72 | 1019.7 |
| 20260503031459 | 5 | 202 | 1.6 | 1.6 | 0.00 | 0.00 | 0.00 | 72 | 1019.7 |
| 20260503030955 | 5 | 202 | 1.6 | 1.6 | 0.00 | 0.00 | 0.00 | 75 | 1019.4 |
| 20260503030452 | 5 | 205 | 1.6 | 1.6 | 0.00 | 0.00 | 0.00 | 77 | 1019.7 |
| 20260503025949 | 5 | 202 | 1.6 | 3.2 | 0.00 | 0.00 | 0.00 | 77 | 1019.9 |
| 20260503025446 | 5 | 208 | 3.2 | 3.2 | 0.00 | 0.00 | 0.00 | 76 | 1019.8 |
| 20260503024943 | 5 | 211 | 3.2 | 3.2 | 0.00 | 0.00 | 0.00 | 77 | 1019.9 |
| 20260503024440 | 5 | 210 | 3.2 | 3.2 | 0.00 | 0.00 | 0.00 | 76 | 1019.7 |
| 20260503023937 | 5 | 212 | 3.2 | 3.2 | 0.00 | 0.00 | 0.00 | 79 | 1019.9 |
| 20260503023434 | 5 | 208 | 3.2 | 3.2 | 0.00 | 0.00 | 0.00 | 78 | 1019.7 |
| 20260503022931 | 6 | 206 | 1.6 | 1.6 | 0.00 | 0.00 | 0.00 | 78 | 1019.9 |
| 20260503022426 | 6 | 208 | 3.2 | 3.2 | 0.00 | 0.00 | 0.00 | 72 | 1019.9 |
| 20260503021922 | 6 | 208 | 1.6 | 3.2 | 0.00 | 0.00 | 0.00 | 68 | 1019.9 |
| 20260503021418 | 6 | 203 | 1.6 | 1.6 | 0.00 | 0.00 | 0.00 | 65 | 1019.9 |
| 20260503020916 | 6 | 204 | 1.6 | 3.2 | 0.00 | 0.00 | 0.00 | 66 | 1019.8 |
| 20260503020414 | 6 | 205 | 1.6 | 1.6 | 0.00 | 0.00 | 0.00 | 64 | 1019.9 |
| 20260503015909 | 6 | 201 | 0.0 | 0.0 | 0.00 | 0.00 | 0.00 | 64 | 1019.9 |
| 20260503015407 | 6 | 200 | 0.0 | 0.0 | 0.00 | 0.00 | 0.00 | 64 | 1019.9 |
| 20260503014902 | 6 | 208 | 1.6 | 1.6 | 0.00 | 0.00 | 0.00 | 66 | 1019.5 |
| 20260503014400 | 6 | 207 | 1.6 | 1.6 | 0.00 | 0.00 | 0.00 | 67 | 1019.7 |
| 20260503013858 | 6 | 205 | 1.6 | 1.6 | 0.00 | 0.00 | 0.00 | 67 | 1019.8 |
| 20260503013354 | 6 | 204 | 3.2 | 3.2 | 0.00 | 0.00 | 0.00 | 69 | 1019.7 |
| 20260503012851 | 6 | 205 | 1.6 | 3.2 | 0.00 | 0.00 | 0.00 | 67 | 1019.7 |
| 20260503012349 | 6 | 204 | 1.6 | 1.6 | 0.00 | 0.00 | 0.00 | 67 | 1019.7 |
| 20260503011846 | 6 | 205 | 1.6 | 3.2 | 0.00 | 0.00 | 0.00 | 70 | 1019.8 |
| 20260503011343 | 6 | 204 | 1.6 | 3.2 | 0.00 | 0.00 | 0.00 | 70 | 1019.8 |
| 20260503010839 | 6 | 207 | 1.6 | 1.6 | 0.00 | 0.00 | 0.00 | 67 | 1019.8 |
| 20260503010336 | 6 | 209 | 1.6 | 1.6 | 0.00 | 0.00 | 0.00 | 66 | 1019.7 |
| 20260503005833 | 7 | 217 | 1.6 | 1.6 | 0.00 | 0.00 | 0.00 | 62 | 1019.7 |
| 20260503005331 | 7 | 217 | 0.0 | 1.6 | 0.00 | 0.00 | 0.00 | 66 | 1019.7 |
| 20260503004826 | 6 | 218 | 1.6 | 1.6 | 0.00 | 0.00 | 0.00 | 65 | 1019.6 |
| 20260503004325 | 6 | 217 | 1.6 | 1.6 | 0.00 | 0.00 | 0.00 | 67 | 1019.5 |
| 20260503003822 | 6 | 213 | 1.6 | 1.6 | 0.00 | 0.00 | 0.00 | 71 | 1019.6 |
| 20260503003318 | 7 | 217 | 0.0 | 0.0 | 0.00 | 0.00 | 0.00 | 66 | 1019.6 |
| 20260503002815 | 7 | 216 | 0.0 | 0.0 | 0.00 | 0.00 | 0.00 | 65 | 1019.6 |
| 20260503002312 | 7 | 226 | 0.0 | 0.0 | 0.00 | 0.00 | 0.00 | 62 | 1019.7 |
| 20260503001809 | 7 | 232 | 1.6 | 1.6 | 0.00 | 0.00 | 0.00 | 58 | 1019.7 |
| 20260503001305 | 7 | 228 | 1.6 | 1.6 | 0.00 | 0.00 | 0.00 | 63 | 1019.5 |
| 20260503000803 | 7 | 236 | 1.6 | 1.6 | 0.00 | 0.00 | 0.00 | 59 | 1019.5 |
| 20260503000300 | 7 | 236 | 1.6 | 1.6 | 0.00 | 0.00 | 0.00 | 58 | 1019.4 |
| 20260502235757 | 7 | 248 | 3.2 | 3.2 | 0.00 | 0.00 | 0.00 | 58 | 1019.5 |
| 20260502235255 | 7 | 249 | 1.6 | 1.6 | 0.00 | 0.00 | 0.00 | 57 | 1019.5 |
| 20260502234751 | 7 | 243 | 1.6 | 1.6 | 0.00 | 0.00 | 0.00 | 57 | 1019.2 |
| 20260502234248 | 7 | 240 | 1.6 | 1.6 | 0.00 | 0.00 | 0.00 | 57 | 1019.5 |
| 20260502233744 | 7 | 240 | 1.6 | 4.8 | 0.00 | 0.00 | 0.00 | 55 | 1019.5 |
| 20260502233241 | 8 | 247 | 3.2 | 4.8 | 0.00 | 0.00 | 0.00 | 53 | 1019.5 |